Location: Unspecified
(0.0000°N, 0.0000°E)
Time: 00:55:48
(UTC+00:00)

Vanguard 2 Rocket - Pass Details

Date: 16 December 2018
Orbit: 554 x 3327 km, 32.9° (Epoch: 18 January)

Event Time Altitude Azimuth Distance (km) Brightness Sun altitude
Rises 03:27:45 0° 257° (WSW) 4,655 - -33.5°
Reaches altitude 10° 03:32:18 10° 272° (W) 3,146 - -32.5°
Maximum altitude 03:37:29 21° 317° (NW) 1,922 - -31.3°
Drops below altitude 10° 03:41:18 10° 7° (N) 2,205 - -30.5°
Sets 03:43:51 0° 25° (NNE) 2,921 - -29.9°
